www.pogodaiklimat.ru

АРХИВ ПОГОДЫ в Бостоне

Время (UTC), дата Ветер
(напр.,м/с)
 
Видим.   Явления Облачность Т
(С)
Тd
(С)
f
(%)
Тe
(С)
Тes
(С)
Комфортность

P
(гПа)

Po
(гПа)
Тmin
(С)
Tmax
(С)
R
(мм)
SD
(см)
00:54 21.05 ЮЗ  16 км    8/0 6900 м
[верхняя] 
+22.2  +18.3  79  +27  +27  душно  1003.7  1002.9         
01:54 21.05 З  6
{9} 
16 км    8/2 1050 м
[средняя верхняя] 
+23.3  +18.3  73  +29  +29  душно  1004.1  1003.2         
02:54 21.05 З  16 км    8/2 1050 м
[средняя верхняя] 
+22.8  +16.7  68  +27  +27  душно  1004.5  1003.9         
03:54 21.05 СЗ  8
{13} 
16 км    5/2 1050 м
[верхняя] 
+21.1  +10.6  51  +23  +23  комфорт  1005.1  1004.2         
04:54 21.05 СЗ  8
{13} 
16 км    5/2 1050 м
[верхняя] 
+20.0  +8.9  49  +20  +20    1005.0  1004.2  +20.0  +23.3     
06:54 21.05 З  9
{13} 
16 км    2/0 7500 м
[верхняя] 
+16.7  +5.6  48  +15  +15    1005.8  1004.9         
07:54 21.05 З  9
{11} 
16 км    2/2 1050 м
[верхняя] 
+15.0  +5.0  51  +13  +13    1006.0  1005.3         
08:54 21.05 З  4
{10} 
16 км    5/2 1050 м
[верхняя] 
+14.4  +5.0  53  +13  +13    1006.6  1005.9         
09:54 21.05 З  9
{13} 
16 км    2/2 1950 м
[верхняя] 
+15.6  +5.0  49  +13  +13    1006.5  1005.9         
10:54 21.05 З  7
{11} 
16 км    2/2 1500 м
[верхняя] 
+16.7  +5.0  46  +15  +16    1007.4  1006.6  +14.4  +19.4     
11:54 21.05 СЗ  9
{14} 
16 км    5/5 1470 м  +17.2  +3.9  41  +16  +16    1007.9  1007.3         
12:54 21.05 З  7
{12} 
16 км    2/2 1500 м  +18.3  +2.8  36  +18  +19    1007.4  1006.6         
13:54 21.05 СЗ  10
{13} 
16 км    2/2 1500 м
[средняя] 
+18.3  +1.1  31  +17  +17    1007.3  1006.6         
14:54 21.05 З  6
{12} 
16 км    2/2 1800 м
[верхняя] 
+19.4  +2.8  33  +19  +23    1007.6  1007.0         
15:54 21.05 СЗ  9
{13} 
16 км    5/2 1950 м
[верхняя] 
+20.6  +1.7  28  +20  +20    1007.7  1007.0         
16:54 21.05 З  10
{16} 
16 км    5/2 1800 м
[верхняя] 
+20.6  +1.7  28  +20  +20    1007.8  1007.0  +16.1  +21.7     
17:54 21.05 З  12
{18} 
16 км    5/2 1800 м
[верхняя] 
+21.7  +1.7  27  +21  +21  комфорт  1007.7  1007.0         
18:54 21.05 СЗ  8
{16} 
16 км    5/2 1650 м
[верхняя] 
+21.7  +1.1  25  +21  +22  комфорт  1008.0  1007.3         
19:54 21.05 СЗ  10
{16} 
16 км    8/5 1650 м
[верхняя] 
+20.6  +1.1  27  +20  +20    1009.4  1008.6         
20:54 21.05 СЗ  10
{15} 
16 км    8/0 2100 м
[средняя верхняя] 
+19.4  +0.6  28  +18  +18    1010.3  1009.7         
21:54 21.05 СЗ  12
{14} 
16 км    8/0 2100 м
[средняя верхняя] 
+18.9  +0.6  29  +18  +18    1011.2  1010.3         
22:54 21.05 СЗ  10
{16} 
16 км    5/0 2100 м
[средняя верхняя] 
+18.3  0.0  29  +17  +17    1012.2  1011.4  +18.3  +22.2     
23:54 21.05 СЗ  8
{10} 
16 км    5/0 2400 м
[средняя верхняя] 
+17.2  0.0  31  +16  +16    1013.4  1012.7         
00:54 22.05 СЗ  8
{13} 
16 км    2/0 2250 м
[средняя верхняя] 
+16.7  0.0  32  +15  +15    1014.3  1013.4         
01:54 22.05 СЗ  16 км    ясно  +16.1  +0.6  35  +15  +15    1015.0  1014.4         
02:54 22.05 СЗ  16 км    2/0 2250 м
[средняя] 
+15.6  +0.6  36  +14  +14    1015.3  1014.4         
03:54 22.05 СЗ  16 км    2/0 2250 м
[средняя] 
+15.0  +1.1  39  +14  +14    1015.4  1014.7         
04:54 22.05 СЗ  8
{12} 
16 км    2/0 2100 м
[средняя] 
+15.0  +1.7  41  +13  +13    1015.8  1015.1  +14.4  +18.3     
05:54 22.05 СЗ  7
{12} 
16 км    2/0 7500 м
[верхняя] 
+14.4  +2.2  44  +12  +12    1016.5  1015.8         
06:54 22.05 СЗ  7
{10} 
16 км    2/0 7500 м
[верхняя] 
+13.9  +2.2  45  +12  +12    1017.1  1016.4         
07:54 22.05 СЗ  8
{12} 
16 км    2/2 1950 м
[верхняя] 
+13.3  +2.2  47  +11  +11    1017.4  1016.8         
08:54 22.05 СЗ  7
{11} 
16 км    2/2 1950 м
[верхняя] 
+13.3  +2.8  49  +11  +11    1018.9  1018.1         
09:54 22.05 СЗ  8
{11} 
16 км    2/2 1950 м
[верхняя] 
+13.9  +2.2  45  +11  +11    1019.6  1018.8         
10:54 22.05 С  8
{11} 
16 км    2/2 1950 м
[верхняя] 
+15.0  +1.7  41  +13  +13    1020.3  1019.5  +13.3  +15.0     
11:54 22.05 С  6
{10} 
16 км    5/2 1500 м
[верхняя] 
+16.1  +0.6  35  +15  +16    1021.0  1020.2         
12:54 22.05 СЗ  5
{10} 
16 км    5/2 1500 м
[верхняя] 
+16.7  +1.1  35  +16  +18    1021.6  1020.8         
13:54 22.05 С  4
{9} 
16 км    8/2 1500 м
[верхняя] 
+17.8  +0.6  31  +18  +23    1021.7  1020.8         
14:54 22.05 С  5
{9} 
16 км    8/2 1500 м
[верхняя] 
+19.4  +1.7  31  +19  +23    1021.9  1021.2         
15:54 22.05 СЗ  7
{11} 
16 км    8/2 1500 м
[верхняя] 
+20.0  +0.6  27  +20  +22    1021.8  1021.2         
16:54 22.05 В  16 км    8/2 1500 м
[верхняя] 
+17.2  +5.6  46  +16  +18    1021.7  1020.8  +15.0  +20.6     
17:54 22.05 В  16 км    8/2 1650 м
[средняя верхняя] 
+16.1  +5.6  50  +14  +16    1022.2  1021.5         
18:54 22.05 В  16 км    8/2 1800 м
[средняя верхняя] 
+15.6  +3.9  46  +14  +15    1022.7  1021.8         
19:54 22.05 В  16 км    8/0 2700 м
[средняя верхняя] 
+16.7  +2.8  39  +15  +17    1022.8  1022.2         
20:54 22.05 В  16 км    8/0 2700 м
[средняя верхняя] 
+15.6  +3.9  46  +14  +16    1023.5  1022.9         
21:54 22.05 В  16 км    8/0 2700 м
[средняя верхняя] 
+15.6  +3.9  46  +15  +15    1023.7  1022.9         
22:54 22.05 ЮВ  16 км    8/0 3300 м
[средняя верхняя] 
+15.0  +5.0  51  +14  +14    1024.0  1023.2  +15.0  +17.2     
23:54 22.05 ЮВ  16 км    8/0 3300 м
[средняя верхняя] 
+14.4  +5.0  53  +13  +13    1024.5  1023.9         
00:54 23.05 Ю  16 км    5/0 3300 м
[средняя верхняя] 
+13.9  +5.0  55  +12  +12    1024.3  1023.5         

 

Местоположение метеостанции Logan International Airport: широта 42.3606 долгота -71.0106 высота над уровнем моря 6 м.

В архиве по умолчанию представлена погода в Бостоне за последние 1-2 суток. Обновление информации о фактической погоде в базе происходит ежечасно! Архивные данные за месяц целиком и за предыдущие месяцы Вы можете получить, выбрав интересующий диапазон дат из раскрывающегося списка и нажав кнопку "Ввод!".

Внимание! Архив погоды МЕТАР в базе сайта в настоящее время начинается c 1 января 2011 г. Нет смысла пытаться выбрать более раннюю дату.

Внимание! Время в таблицах - всемирное. Для получения местного времени необходимо прибавить поправку, которая в Бостоне равна -5 ч.

Ветер - указаны скорость ветра в м/с и направление, откуда дует ветер: С - северный, СВ - северо-восточный, В - восточный, ЮВ - юго-восточный, Ю - южный, ЮЗ - юго-западный, З - западный, СЗ - северо-западный.
Видимость - горизонтальная дальность видимости в метрах или километрах. При видимости от 1 до 10 км при отсутствии осадков обычно наблюдается дымка, при ухудшении видимости до 1 км и менее - туман. В сухую погоду видимость может ухудшаться дымом, пылью или мглою.
Атмосферные явления - указаны явления, наблюдавшиеся в указанный момент времени.
Облачность - указаны через наклонную черту верхняя и нижняя облачность в баллах и высота нижней границы облаков в метрах. Внимание: облачность, как и прочие метеорологические величины в США измеряются автоматическими метеостанциями. Указанные значения в баллах носят условный характер и показывают процент времени, в течение которого, в среднем, лазерный луч высотомера отражался от облаков обратно.
T - Температура воздуха - температура, измеренная на высоте 2 м над землей.
Td - Температура точки росы - температура, при понижении до которой содержащийся в воздухе водяной пар достигнет насыщения.
f - Относительная влажность воздуха - влажноcть воздуха, измеренная на высоте 2 м над землей.
Te - Эффективная температура - температура, которую ощущает одетый по сезону человек в тени. Характеристика душности погоды. При расчете учитывается влияние влажности воздуха и скорости ветра на теплоощущения человека.
Tes - Эффективная температура на солнце - температура, которую ощущает человек, с поправкой на солнечный нагрев. Характеристика знойности погоды. Зависит от высоты солнца над горизонтом, облачности и скорости ветра. Ночью, в пасмурную погоду, а также при ветре 12 м/с и более поправка равна нулю.
P - Атмосферное давление - приведенное к уровню моря атмосферное давление.
Po - Атмосферное давление - измеренное на уровне метеостанции атмосферное давление.
Tmin - Минимальная температура - минимум температуры воздуха на высоте 2 м над землей.
Tmax - Максимальная температура - максимум температуры воздуха на высоте 2 м над землей.
R - Количество осадков - Количество выпавших осадков за 3 или 6 часов, мм.
SD - Снежный покров - Высота снежного покрова, см.